Weather reports worldwide

Advertisment
Palma De Mallorca/Son San Ju, Spain (8306): temperature & dewpoint: 14.06.2019 06:00:00 - 20.06.2019 06:00:00 (CEST)Palma De Mallorca/Son San Ju, Spain (8306): wind speed: 14.06.2019 06:00:00 - 20.06.2019 06:00:00 (CEST)Palma De Mallorca/Son San Ju, Spain (8306): wind direction: 14.06.2019 06:00:00 - 20.06.2019 06:00:00 (CEST)Palma De Mallorca/Son San Ju, Spain (8306): reduced air pressure: 14.06.2019 06:00:00 - 20.06.2019 06:00:00 (CEST)Palma De Mallorca/Son San Ju, Spain (8306): visibility: 14.06.2019 06:00:00 - 20.06.2019 06:00:00 (CEST)
Date & Time tt [°C] td [°C] ff [km/h] ff [kn] dd ppp [hPa] vv [km]
20.06.2019 06:00:00 - - - - - - -
20.06.2019 05:00:00 20,0 18,5 5 3 NNE 1012,9 9
20.06.2019 04:00:00 19,8 18,5 4 2 NE 1013,0 9
20.06.2019 03:00:00 19,5 17,8 8 4 SSE 1013,0 8
20.06.2019 02:00:00 20,0 19,0 8 4 S 1013,1 7
20.06.2019 01:00:00 18,3 17,8 0 0 N 1013,0 7
20.06.2019 00:00:00 19,1 18,4 5 3 S 1013,2 8
19.06.2019 23:00:00 20,3 19,5 0 0 N 1013,3 8
19.06.2019 22:00:00 21,0 18,9 4 2 WSW 1012,9 8
19.06.2019 21:00:00 22,3 19,3 9 5 SW 1012,9 9
19.06.2019 20:00:00 23,5 19,3 16 9 SW 1012,8 10
19.06.2019 19:00:00 24,4 19,2 16 9 SW 1012,7 10
19.06.2019 18:00:00 25,1 18,8 15 8 SW 1013,1 10
19.06.2019 17:00:00 25,3 18,3 21 11 SSW 1013,6 30
19.06.2019 16:00:00 25,4 18,3 21 11 SW 1014,0 10
19.06.2019 15:00:00 26,0 18,4 21 11 WSW 1014,1 10
19.06.2019 14:00:00 25,7 17,6 18 10 SW 1014,4 30
19.06.2019 13:00:00 25,1 18,5 22 12 SW 1014,7 10
19.06.2019 12:00:00 25,6 18,9 26 14 SW 1014,9 10
19.06.2019 11:00:00 24,6 18,1 21 11 SW 1014,4 10
19.06.2019 10:00:00 25,5 14,4 4 2 W 1013,9 10
19.06.2019 09:00:00 23,5 15,2 2 1 NNW 1014,3 10
19.06.2019 08:00:00 18,7 11,3 4 2 N 1014,3 10
19.06.2019 07:00:00 13,7 10,3 4 2 - 1014,0 10
19.06.2019 06:00:00 13,2 9,8 2 1 ENE 1014,2 10
19.06.2019 05:00:00 13,3 9,9 2 1 NE 1013,9 20
19.06.2019 04:00:00 13,8 10,4 4 2 NE 1013,8 10
19.06.2019 03:00:00 14,8 10,8 4 2 E 1014,2 10
19.06.2019 02:00:00 15,4 11,4 4 2 NE 1014,3 10
19.06.2019 01:00:00 16,3 12,1 2 1 ENE 1014,7 10
19.06.2019 00:00:00 17,5 13,2 4 2 - 1015,2 10
18.06.2019 23:00:00 19,0 13,8 2 1 E 1015,1 10
18.06.2019 22:00:00 21,2 15,1 0 0 N 1014,7 10
18.06.2019 21:00:00 23,2 16,3 11 6 WSW 1014,8 10
18.06.2019 20:00:00 24,4 15,8 18 10 SW 1014,8 30
18.06.2019 19:00:00 25,6 14,2 22 12 WSW 1014,7 10
18.06.2019 18:00:00 26,2 13,2 22 12 SW 1014,8 10
18.06.2019 17:00:00 26,5 15,4 24 13 SW 1015,2 10
18.06.2019 16:00:00 26,8 15,1 26 14 SW 1015,6 10
18.06.2019 15:00:00 27,1 13,2 26 14 WSW 1015,7 10
18.06.2019 14:00:00 27,3 11,3 28 15 SW 1016,1 10
18.06.2019 13:00:00 27,2 8,6 22 12 WSW 1016,3 10
18.06.2019 12:00:00 27,2 10,5 16 9 WSW 1016,4 10
18.06.2019 11:00:00 27,4 7,4 11 6 SW 1016,4 30
18.06.2019 10:00:00 26,0 9,2 5 3 WSW 1016,6 10
18.06.2019 09:00:00 23,7 11,9 0 0 N 1016,7 10
18.06.2019 08:00:00 19,6 11,9 4 2 - 1016,3 10
18.06.2019 07:00:00 14,5 11,8 4 2 - 1016,0 10
18.06.2019 06:00:00 12,7 11,3 4 2 - 1015,7 10
18.06.2019 05:00:00 13,2 11,4 5 3 E 1015,7 20
18.06.2019 04:00:00 14,4 12,8 4 2 - 1016,1 10
18.06.2019 03:00:00 14,9 12,2 5 3 E 1016,3 10
18.06.2019 02:00:00 16,3 13,6 4 2 NE 1016,7 20
18.06.2019 01:00:00 16,8 13,5 5 3 NE 1017,1 10
18.06.2019 00:00:00 18,0 14,0 0 0 N 1017,2 10
17.06.2019 23:00:00 19,5 15,6 5 3 W 1016,9 25
17.06.2019 22:00:00 21,3 16,1 2 1 - 1016,5 10
17.06.2019 21:00:00 22,8 15,4 11 6 SW 1016,3 10
17.06.2019 20:00:00 24,3 14,0 16 9 SW 1016,1 10
17.06.2019 19:00:00 25,5 11,7 15 8 WSW 1016,0 10
17.06.2019 18:00:00 25,6 11,9 16 9 SW 1016,2 10
17.06.2019 17:00:00 26,1 11,5 16 9 SSW 1016,8 10
17.06.2019 16:00:00 26,5 10,9 21 11 SW 1017,2 10
17.06.2019 15:00:00 26,4 12,1 24 13 SW 1017,2 10
17.06.2019 14:00:00 26,7 14,5 24 13 SW 1017,3 10
17.06.2019 13:00:00 26,6 13,3 22 12 SW 1017,5 10
17.06.2019 12:00:00 25,9 14,2 21 11 SW 1017,5 10
17.06.2019 11:00:00 25,5 13,7 15 8 SW 1017,2 10
17.06.2019 10:00:00 26,6 12,0 2 1 NW 1017,1 10
17.06.2019 09:00:00 23,1 14,6 9 5 NE 1017,2 10
17.06.2019 08:00:00 19,3 15,0 4 2 ENE 1017,1 10
17.06.2019 07:00:00 15,3 14,5 0 0 N 1017,1 10
17.06.2019 06:00:00 15,1 14,6 8 4 NE 1017,4 10
17.06.2019 05:00:00 16,1 15,0 4 2 ENE 1017,6 10
17.06.2019 04:00:00 16,7 15,2 8 4 ENE 1017,6 10
17.06.2019 03:00:00 17,7 16,4 5 3 ENE 1017,8 10
17.06.2019 02:00:00 18,8 15,8 2 1 - 1018,1 10
17.06.2019 01:00:00 20,6 16,8 8 4 S 1018,2 10
17.06.2019 00:00:00 19,9 17,1 2 1 NNW 1017,9 10
16.06.2019 23:00:00 20,4 17,2 2 1 WSW 1018,2 10
16.06.2019 22:00:00 21,2 17,2 9 5 SW 1018,1 10
16.06.2019 21:00:00 21,9 16,6 9 5 SW 1017,8 10
16.06.2019 20:00:00 22,3 16,3 15 8 SW 1017,9 28
16.06.2019 19:00:00 22,5 16,4 16 9 SW 1018,0 10
16.06.2019 18:00:00 24,3 15,7 13 7 SW 1017,9 10
16.06.2019 17:00:00 24,4 16,1 22 12 SW 1018,7 10
16.06.2019 16:00:00 24,8 16,5 24 13 WSW 1019,1 10
16.06.2019 15:00:00 25,9 16,3 21 11 WSW 1019,2 10
16.06.2019 14:00:00 27,7 11,3 16 9 E 1019,6 10
16.06.2019 13:00:00 26,5 11,1 24 13 ENE 1019,9 10
16.06.2019 12:00:00 25,8 12,7 31 17 ENE 1019,7 10
16.06.2019 11:00:00 24,1 12,3 29 16 ENE 1019,7 28
16.06.2019 10:00:00 22,6 13,1 37 20 ENE 1019,5 10
16.06.2019 09:00:00 21,8 12,9 39 21 ENE 1019,4 10
16.06.2019 08:00:00 20,0 13,2 21 11 ENE 1019,3 10
16.06.2019 07:00:00 18,3 14,4 16 9 ENE 1019,4 10
16.06.2019 06:00:00 17,7 14,8 16 9 ENE 1019,3 10
16.06.2019 05:00:00 18,0 15,1 18 10 ENE 1019,1 10
16.06.2019 04:00:00 18,3 15,4 16 9 ENE 1019,4 10
16.06.2019 03:00:00 18,7 15,0 21 11 ENE 1019,7 10
16.06.2019 02:00:00 19,1 15,0 21 11 ENE 1019,7 20
16.06.2019 01:00:00 19,9 15,9 28 15 ENE 1019,6 10
16.06.2019 00:00:00 20,2 17,2 24 13 ENE 1019,3 10
15.06.2019 23:00:00 20,8 17,6 18 10 ENE 1018,7 20
15.06.2019 22:00:00 21,9 17,5 16 9 ENE 1017,9 10
15.06.2019 21:00:00 24,2 17,2 18 10 ENE 1016,7 10
15.06.2019 20:00:00 26,8 16,7 21 11 E 1015,9 10
15.06.2019 19:00:00 29,0 16,5 15 8 ENE 1015,2 10
15.06.2019 18:00:00 29,3 15,1 9 5 WSW 1015,2 10
15.06.2019 17:00:00 28,2 17,1 11 6 SSW 1015,3 25
15.06.2019 16:00:00 26,3 17,2 15 8 SW 1015,6 10
15.06.2019 15:00:00 25,4 18,2 22 12 SW 1016,0 10
15.06.2019 14:00:00 26,3 17,3 18 10 SSW 1015,9 20
15.06.2019 13:00:00 25,9 16,5 18 10 SSW 1016,2 10
15.06.2019 12:00:00 24,8 16,9 15 8 SW 1016,2 10
15.06.2019 11:00:00 24,1 17,4 13 7 SSW 1016,1 18
15.06.2019 10:00:00 22,3 16,8 15 8 SW 1016,3 10
15.06.2019 09:00:00 21,4 17,0 18 10 SW 1016,0 10
15.06.2019 08:00:00 21,1 16,5 16 9 SW 1015,4 10
15.06.2019 07:00:00 20,7 16,3 16 9 SW 1015,1 10
15.06.2019 06:00:00 20,5 15,9 15 8 SW 1015,1 10
15.06.2019 05:00:00 20,4 16,4 8 4 SW 1014,7 10
15.06.2019 04:00:00 18,8 16,9 13 7 SW 1014,7 10
15.06.2019 03:00:00 16,5 15,5 2 1 - 1015,0 10
15.06.2019 02:00:00 17,7 15,5 4 2 ENE 1015,1 10
15.06.2019 01:00:00 20,3 17,1 2 1 S 1015,2 10
15.06.2019 00:00:00 21,2 17,2 9 5 SW 1015,4 10
14.06.2019 23:00:00 21,1 18,3 13 7 SW 1015,2 12
14.06.2019 22:00:00 21,4 18,6 11 6 SW 1014,7 10
14.06.2019 21:00:00 21,9 18,5 16 9 SW 1014,0 10
14.06.2019 20:00:00 22,6 15,7 15 8 SSW 1013,5 20
14.06.2019 19:00:00 24,2 15,3 16 9 SW 1012,6 10
14.06.2019 18:00:00 24,3 14,0 24 13 SW 1012,4 10
14.06.2019 17:00:00 24,9 13,5 31 17 SW 1012,4 10
14.06.2019 16:00:00 25,0 13,5 37 20 WSW 1011,8 10
14.06.2019 15:00:00 25,2 14,6 34 18 WSW 1011,1 10
14.06.2019 14:00:00 24,8 15,2 24 13 WSW 1011,0 18
14.06.2019 13:00:00 23,5 16,2 41 22 W 1011,0 10
14.06.2019 12:00:00 22,5 16,8 34 18 W 1010,2 10
14.06.2019 11:00:00 21,8 17,2 34 18 WSW 1009,5 15
14.06.2019 10:00:00 22,0 18,0 37 20 WSW 1008,4 10
14.06.2019 09:00:00 22,7 17,6 5 3 WSW 1006,1 10
14.06.2019 08:00:00 22,7 17,6 16 9 WSW 1005,5 14
14.06.2019 07:00:00 21,2 17,2 5 3 NNW 1005,3 10
14.06.2019 06:00:00 21,3 17,3 9 5 ENE 1005,3 10

tt = temperature
td = dewpoint
ff = wind speed
dd = wind direction
ppp = reduced air pressure
vv = visibility

Next stations